Погода в Коберн-Тауне

Тёркс и Кайкос     21°28′21″N   71°08′23″W
темп.,
°C
ветер,
м/с
пор.,
м/с
влажн.,
%
обл.,
%
осадки,
мм/ч
давл.,
гПа
погр.,
м
27 января, ср
ср2701:00+24в9107718 0.0 1018868
04:00+24в89770 0.0 1017838
07:00+24вюв89760 0.0 1019915
10:00+24вюв89760 0.0 1020959
13:00+25вюв787511 0.0 10181007
16:00+25вюв677421 0.0 1017941
19:00+25в787710 0.0 1018870
22:00+24в78777 0.0 1019983
28 января, чт
чт2801:00+24вюв677518 0.0 1018989
04:00+24вюв567319 0.1 10161051
07:00+25юв677319 0.1 10171016
10:00+25юв44701 0.0 10181060
13:00+25ю116145 0.1 10161105
16:00+25зсз22600 0.0 1015828
19:00+25ссз55690 0.0 10171100
22:00+25ссз56720 0.0 10171028
29 января, пт
пт2901:00+24ссз677412 0.1 10171050
04:00+23ссв12138360 0.9 1015848
07:00+23ссв10117977 0.9 1017723
10:00+22ссв11128037 0.0 1018705
13:00+22ссв11127819 0.0 1018786
16:00+22ссв1011750 0.0 1017868
19:00+22св1111750 0.0 1019952
22:00+22св1111760 0.0 1020958
30 января, сб
сб3001:00+21св1011750 0.0 1019987
04:00+21св1011740 0.0 1018969
07:00+21св1011730 0.0 10201143
10:00+22всв10107123 0.1 10221147
13:00+22всв9107037 0.1 10201192
16:00+22всв9107294 0.0 10191181
19:00+22всв10117580 0.1 10201100
22:00+23в1011743 0.1 10211145
31 января, вс
вс3101:00+22в10107442 0.1 10201155
04:00+22всв10107399 0.1 10181121
07:00+23в10107299 0.3 10201171
10:00+23в10117350 0.1 10211168
13:00+24в10117325 0.1 10191061
16:00+24в10117720 0.0 1017989
19:00+24вюв10117739 0.0 1018987
22:00+24в1011781 0.0 1018848